#timestamp,LO_Frequency,Hit 
1501830015.9,286047029.6,N
1501830035.7,286047029.1,N
1501830055.5,286047030.8,N
1501830075.3,286047030.2,N
1501830095.2,286047032.5,N
1501830115.0,286047028.5,N
1501830115.9,286047028.5,N
1501830135.7,286047029.3,N
1501830155.6,286047028.9,N
1501830175.4,286047031.1,N
1501830195.2,286047027.2,N
1501830215.1,286047031.1,N
1501830216.0,286047031.1,N
1501830235.8,286047031.4,N
1501830255.6,286047027.3,N
1501830275.5,286047029.7,N
1501830295.3,286047030.7,N
1501830315.1,286047032.7,N
1501830335.9,286047035.6,N
1501830355.7,286047036.4,N
1501830375.5,286047032.7,N
1501830395.3,286047028.7,N
1501830415.2,286047030.6,N
1501830435.0,286047031.2,N
1501830435.9,286047031.2,N
1501830455.7,286047027.1,N
1501830475.6,286047029.5,N
1501830495.4,286047031.3,N
1501830515.2,286047028.6,N
1501830535.1,286047028.6,N
1501830536.0,286047028.6,N
1501830555.8,286047030.7,N
1501830575.6,286047028.6,N
1501830595.5,286047027.3,N
1501830615.3,286047028.1,N
1501830635.1,286047030.1,N
1501830655.9,286047036.1,N
1501830675.7,286047038.0,Y
1501830695.5,286047029.9,N
1501830715.4,286047025.8,N
1501830735.2,286047025.6,N
1501830755.0,286047025.9,N
1501830755.9,286047025.9,N
1501830775.8,286047022.8,N
1501830795.6,286047020.6,N
1501830815.4,286047021.6,N
1501830835.2,286047023.1,N
1501830855.1,286047024.4,N
1501830856.0,286047024.4,N
1501830875.8,286047023.9,N
1501830895.6,286047017.7,N
1501830915.5,286047018.1,N
1501830935.3,286047021.3,N
1501830955.1,286047020.8,N
1501830975.9,286047018.9,N
1501830995.7,286047017.8,N
1501831015.5,286047017.9,N
1501831035.4,286047018.9,N
1501831055.2,286047023.6,N
1501831075.0,286047020.7,N
1501831075.9,286047020.7,N
1501831095.8,286047019.0,N
1501831115.6,286047021.3,N
1501831135.4,286047021.2,N
1501831155.2,286047021.7,N
1501831175.1,286047023.5,N
1501831176.0,286047023.5,N
1501831195.8,286047023.4,N
1501831215.6,286047023.4,N
1501831235.5,286047021.0,N
1501831255.3,286047021.6,N
1501831275.1,286047023.3,N
1501831295.9,286047021.8,N
1501831315.7,286047021.2,N
1501831335.5,286047025.2,N
1501831355.4,286047024.7,N
1501831375.2,286047024.7,N
1501831395.0,286047023.5,N
1501831395.9,286047023.5,N
1501831415.7,286047020.8,N
1501831435.6,286047022.8,N
1501831455.4,286047024.4,N
1501831475.2,286047022.8,N
1501831495.1,286047022.9,N
1501831496.0,286047022.9,N
1501831515.8,286047024.0,N
1501831535.6,286047025.0,N
1501831555.5,286047024.6,N
1501831575.3,286047026.0,N
1501831595.1,286047022.6,N
1501831615.9,286047024.4,N
1501831635.7,286047024.5,N
1501831655.5,286047022.2,N
1501831675.3,286047022.2,N
1501831695.2,286047028.1,N
1501831715.0,286047028.1,N
1501831715.9,286047028.1,N
1501831735.7,286047025.3,N
1501831755.6,286047025.4,N
1501831775.4,286047027.7,N
1501831795.2,286047026.6,N
1501831815.1,286047023.3,N
1501831816.0,286047023.3,N
1501831835.8,286047026.7,N
1501831855.6,286047032.0,N
1501831875.5,286047029.8,N
1501831895.3,286047027.3,N
1501831915.1,286047029.4,N
1501831935.9,286047030.0,N
1501831955.7,286047029.9,N
1501831975.5,286047025.7,N
1501831995.3,286047024.2,N
1501832015.2,286047026.6,N
1501832035.0,286047027.9,N
1501832035.9,286047027.9,N
1501832055.7,286047027.8,N
1501832075.6,286047025.9,N
1501832095.4,286047026.0,N
1501832115.2,286047026.3,N
1501832135.1,286047026.8,N
1501832136.0,286047026.8,N
1501832155.8,286047024.5,N
1501832175.6,286047023.8,N
1501832195.5,286047024.7,N
1501832215.3,286047025.2,N
1501832235.1,286047025.2,N
1501832255.9,286047022.4,N
1501832275.7,286047022.6,N
1501832295.5,286047022.5,N
1501832315.4,286047022.2,N
1501832335.2,286047022.4,N
1501832355.0,286047020.6,N
1501832355.9,286047020.6,N
1501832375.7,286047020.9,N
1501832395.6,286047020.8,N
1501832415.4,286047021.6,N
1501832435.2,286047018.9,N
1501832455.1,286047021.4,N
1501832456.0,286047021.4,N
1501832475.8,286047020.5,N
1501832495.6,286047021.0,N
1501832515.5,286047023.1,N
1501832535.3,286047023.5,N
1501832555.1,286047020.6,N
1501832575.9,286047021.5,N
1501832595.7,286047017.7,N
1501832615.5,286047019.6,N
1501832635.3,286047017.7,N
1501832655.2,286047020.2,N
1501832675.0,286047019.2,N
1501832675.9,286047019.2,N
1501832695.7,286047019.9,N
1501832715.6,286047019.3,N
1501832735.4,286047018.9,N
1501832755.2,286047020.0,N
1501832775.1,286047021.6,N
1501832776.0,286047021.6,N
1501832795.8,286047021.7,N
1501832815.6,286047021.8,N
1501832835.5,286047020.8,N
1501832855.3,286047020.7,N
1501832875.1,286047020.7,N
1501832895.9,286047019.8,N
1501832915.7,286047019.8,N
1501832935.5,286047020.2,N
1501832955.3,286047017.7,N
1501832975.2,286047018.0,N
1501832995.9,286047018.4,N
1501833015.7,286047017.3,N
1501833035.6,286047017.7,N
1501833055.4,286047020.4,N
1501833075.2,286047018.1,N
1501833095.1,286047017.6,N
1501833096.0,286047017.6,N
1501833115.8,286047018.7,N
1501833135.6,286047018.8,N
1501833155.4,286047018.0,N
1501833175.3,286047018.1,N
1501833195.1,286047016.2,N
1501833215.8,286047015.0,N
1501833235.7,286047015.4,N
1501833255.5,286047015.0,N
1501833275.3,286047014.6,N
1501833295.2,286047013.1,N
1501833315.9,286047015.2,N
1501833335.7,286047012.9,N
1501833355.6,286047010.9,N
1501833375.4,286047015.5,N
1501833395.2,286047015.6,N
1501833415.1,286047012.7,N
1501833416.0,286047012.7,N
1501833435.8,286047013.0,N
1501833455.6,286047012.5,N
1501833475.5,286047015.6,N
1501833495.3,286047014.3,N
1501833515.1,286047014.4,N
1501833535.8,286047016.3,N
1501833555.7,286047018.4,N
1501833575.5,286047018.6,N
1501833595.3,286047016.0,N
